Satellite: ISS
Catalog number: 25544
Epoch time:      09006.87881944
Element set:    0015
Inclination:      051.6428 deg
RA of node:       052.6262 deg
Eccentricity:    0.0007025
Arg of perigee:   167.1222 deg
Mean anomaly:     175.4681 deg
Mean motion:   15.72061961 rev/day
Decay rate:     1.2711e-04 rev/day^2
Epoch rev:           58057
Checksum:              288

Satellite: CO-58
Catalog number: 28895
Epoch time:      09008.62713057
Element set:     205
Inclination:      098.0803 deg
RA of node:       263.5303 deg
Eccentricity:    0.0018838
Arg of perigee:   125.3882 deg
Mean anomaly:     234.9072 deg
Mean motion:   14.59731250 rev/day
Decay rate:        8.5e-07 rev/day^2
Epoch rev:           17045
Checksum:              312

Satellite: FALCON
Catalog number: 30776
Epoch time:      09006.43547985
Element set:    0485
Inclination:      035.4349 deg
RA of node:       000.7082 deg
Eccentricity:    0.0001686
Arg of perigee:   318.6051 deg
Mean anomaly:     041.4537 deg
Mean motion:   15.03141255 rev/day
Decay rate:       3.15e-06 rev/day^2
Epoch rev:           10074
Checksum:              271

Satellite: MAST
Catalog number: 31126
Epoch time:      09008.59916096
Element set:     499
Inclination:      098.0142 deg
RA of node:       070.5299 deg
Eccentricity:    0.0095603
Arg of perigee:   055.5270 deg
Mean anomaly:     305.4966 deg
Mean motion:   14.53470691 rev/day
Decay rate:       1.13e-06 rev/day^2
Epoch rev:            9185
Checksum:              310

Satellite: CAPE1
Catalog number: 31130
Epoch time:      09008.82426214
Element set:     498
Inclination:      098.0157 deg
RA of node:       069.2883 deg
Eccentricity:    0.0103869
Arg of perigee:   059.3177 deg
Mean anomaly:     301.8201 deg
Mean motion:   14.52023715 rev/day
Decay rate:       1.01e-06 rev/day^2
Epoch rev:            9156
Checksum:              278

Satellite: COMPASS
Catalog number: 32787
Epoch time:      09008.71436630
Element set:     247
Inclination:      097.9654 deg
RA of node:       073.7277 deg
Eccentricity:    0.0015637
Arg of perigee:   186.8053 deg
Mean anomaly:     173.2934 deg
Mean motion:   14.81527992 rev/day
Decay rate:        1.2e-07 rev/day^2
Epoch rev:            3783
Checksum:              324

Satellite: AAUSAT2
Catalog number: 32788
Epoch time:      09008.15493659
Element set:     248
Inclination:      097.9664 deg
RA of node:       073.2071 deg
Eccentricity:    0.0015256
Arg of perigee:   189.1112 deg
Mean anomaly:     170.9830 deg
Mean motion:   14.81646432 rev/day
Decay rate:       4.96e-06 rev/day^2
Epoch rev:            3775
Checksum:              323

Satellite: DO-64
Catalog number: 32789
Epoch time:      09008.84771038
Element set:     260
Inclination:      097.9694 deg
RA of node:       073.9700 deg
Eccentricity:    0.0015723
Arg of perigee:   185.9410 deg
Mean anomaly:     174.1606 deg
Mean motion:   14.81582286 rev/day
Decay rate:       1.43e-06 rev/day^2
Epoch rev:            3785
Checksum:              329

Satellite: CO-66
Catalog number: 32791
Epoch time:      09006.10527293
Element set:    0244
Inclination:      097.9682 deg
RA of node:       071.1616 deg
Eccentricity:    0.0015845
Arg of perigee:   192.8951 deg
Mean anomaly:     167.1859 deg
Mean motion:   14.81370384 rev/day
Decay rate:       1.72e-06 rev/day^2
Epoch rev:           03741
Checksum:              320

Satellite: RS-30
Catalog number: 32953
Epoch time:      09006.48591155
Element set:    0203
Inclination:      082.5017 deg
RA of node:       357.1626 deg
Eccentricity:    0.0019184
Arg of perigee:   167.5478 deg
Mean anomaly:     192.6078 deg
Mean motion:   12.42999279 rev/day
Decay rate:        1.0e-07 rev/day^2
Epoch rev:           02830
Checksum:              309

/EX



_______________________________________________
Via the Keps mailing list courtesy of AMSAT-NA
http://amsat.org/mailman/listinfo/keps

--- ViaMAIL!/WC v1.60d
 * Origin: Chowdanet (401-724-4410) telnet://chowdanet.com  (1:323/120)